Regional Weather Roundup
Issued by NWS

Home | Current Version | Previous Version | Graphics & Text | Print | Product List | Glossary On
Versions: 1 2 3 4 5 6 7 8 9 10 11 12 13 14 15 16 17 18 19 20 21 22 23 24 25 26 27 28 29 30 31 32 33 34 35 36 37 38 39 40 41 42 43 44 45 46 47 48 49 50
000
ASUS43 KBIS 040810
RWRND

NORTH DAKOTA REGIONAL WEATHER ROUNDUP
NATIONAL WEATHER SERVICE BISMARCK ND
300 AM CDT WED MAY 04 2016

NOTE: "FAIR" INDICATES FEW OR NO CLOUDS BELOW 12,000 FEET WITH NO
SIGNIFICANT WEATHER AND/OR OBSTRUCTIONS TO VISIBILITY.


NDZ001>003-009>011-017-040900-
NORTHWEST NORTH DAKOTA

CITY           SKY/WX    TMP DP  RH WIND       PRES   REMARKS
WILLISTON      CLEAR     48  40  73 CALM      30.07R
MINOT          CLEAR     47  28  47 SE3       30.08R
MINOT AFB      CLEAR     43  31  62 SE6       30.07S
$$

NDZ018>021-031>035-040>046-040900-
SOUTHWEST NORTH DAKOTA

CITY           SKY/WX    TMP DP  RH WIND       PRES   REMARKS
BISMARCK       CLEAR     40  31  70 NE3       30.10S
DICKINSON      CLEAR     44  35  70 S8        30.09R
GARRISON         N/A     42  31  64 CALM      30.09R
HETTINGER ARPT CLEAR     39  34  82 W3        30.12R
$$

NDZ004>008-012>016-024-026-027-054-040900-
NORTHEAST NORTH DAKOTA

CITY           SKY/WX    TMP DP  RH WIND       PRES   REMARKS
GRAND FORKS    CLEAR     37  31  78 NW8       30.04R
GRND FRKS AFB  CLEAR     39  32  75 N7        30.04S
DEVILS LAKE    CLEAR     36  31  82 NW3       30.08R
$$

NDZ022-023-025-028>030-036>039-047>053-040900-
SOUTHEAST NORTH DAKOTA

CITY           SKY/WX    TMP DP  RH WIND       PRES   REMARKS
FARGO          CLEAR     42  29  59 N7        30.02R
JAMESTOWN      CLEAR     36  30  79 NW6       30.06R
$$





USA.gov is the U.S. government's official web portal to all federal, state and local government web resources and services.